AP893 Weather Reports


time (UTC)temp
F
wind
direction
speed
knots
gust
knots
rain 1hr
in
rain 24hr
in
rain mn
in
humidity
%
barometer
mb
20260904131009 60 322 0.0 0.0 0.00 0.04 0.00 89 1015.6
20260904130010 59 322 0.0 1.7 0.00 0.04 0.00 89 1015.5
20260904125009 60 16 0.0 0.0 0.00 0.04 0.00 89 1015.3
20260904124010 60 16 0.0 0.0 0.00 0.04 0.00 89 1015.2
20260904123009 60 16 0.0 0.0 0.00 0.04 0.00 89 1015.1
20260904122009 60 16 0.0 0.0 0.00 0.04 0.00 89 1015.1
20260904121009 60 16 0.0 0.0 0.00 0.04 0.00 89 1015.1
20260904115009 59 16 0.0 0.0 0.00 0.04 0.00 90 1015.2
20260904113009 59 16 0.0 0.0 0.00 0.04 0.00 90 1015.2
20260904112009 59 16 0.0 0.0 0.00 0.04 0.00 90 1015.3
20260904111009 59 16 0.0 0.0 0.00 0.04 0.00 90 1015.2
20260904110010 59 16 0.0 0.0 0.00 0.04 0.00 90 1015.2
20260904105010 59 16 0.0 0.0 0.00 0.04 0.00 90 1015.1
20260904104010 59 16 0.0 0.0 0.00 0.04 0.00 89 1015.0
20260904103010 59 16 0.0 0.0 0.00 0.04 0.00 89 1015.0
20260904102010 59 16 0.0 0.0 0.00 0.04 0.00 89 1015.0
20260904101010 59 16 0.0 0.0 0.00 0.04 0.00 88 1014.9
20260904100009 59 16 0.0 0.0 0.00 0.04 0.00 87 1014.8
20260904094009 60 16 0.0 0.0 0.00 0.04 0.00 86 1014.7
20260904092010 61 16 0.0 0.0 0.00 0.04 0.00 84 1014.9
20260904091011 61 16 0.0 0.0 0.00 0.04 0.00 83 1014.9
20260904090009 61 16 0.0 0.0 0.00 0.04 0.00 82 1014.8
20260904085010 62 16 0.0 4.3 0.00 0.04 0.00 80 1014.8
20260904084011 62 297 0.9 5.2 0.00 0.04 0.00 77 1014.8
20260904082010 62 8 0.0 1.7 0.00 0.04 0.00 69 1014.8
20260904081010 62 353 0.0 0.0 0.00 0.04 0.00 65 1014.9
20260904080009 62 353 0.0 0.0 0.00 0.04 0.00 65 1014.8
20260904075010 62 353 0.0 0.0 0.00 0.04 0.00 64 1014.8
20260904074010 62 353 0.0 0.0 0.00 0.04 0.00 64 1014.8
20260904072010 62 353 0.0 0.0 0.00 0.04 0.00 67 1014.8
20260904070010 63 353 0.0 0.0 0.00 0.04 0.00 70 1015.0
20260904065009 63 353 0.0 0.0 0.00 0.04 0.04 69 1015.0
20260904064010 63 353 0.0 0.0 0.00 0.04 0.04 69 1015.1
20260904063009 63 353 0.0 0.0 0.00 0.04 0.04 69 1015.1
20260904062013 64 353 0.0 0.0 0.00 0.04 0.04 69 1015.1
20260904061010 64 353 0.0 0.0 0.00 0.04 0.04 69 1015.1
20260904060010 64 353 0.0 0.0 0.00 0.04 0.04 69 1015.3
20260904055009 64 353 0.0 0.0 0.00 0.04 0.04 69 1015.3
20260904054009 64 353 0.0 0.0 0.00 0.04 0.04 66 1015.5
20260904053010 64 353 0.0 0.0 0.00 0.04 0.04 64 1015.5
20260904052010 65 353 0.0 0.0 0.00 0.04 0.04 63 1015.5
20260904051010 65 353 0.0 0.0 0.00 0.04 0.04 62 1015.6
20260904045009 65 353 0.0 0.0 0.00 0.04 0.04 60 1015.7
20260904044010 66 353 0.0 0.0 0.00 0.04 0.04 60 1015.6
20260904043010 66 353 0.0 0.0 0.00 0.04 0.04 58 1015.7
20260904041009 67 353 0.0 0.0 0.00 0.04 0.04 55 1015.6
20260904035010 68 353 0.0 0.0 0.00 0.04 0.04 53 1015.5
20260904034010 68 353 0.0 0.0 0.00 0.04 0.04 51 1015.3
20260904033009 68 353 0.0 5.2 0.00 0.04 0.04 49 1015.3
20260904032009 69 349 0.9 4.3 0.00 0.04 0.04 46 1015.2
20260904031010 70 260 0.0 0.0 0.00 0.04 0.04 41 1015.2
20260904030010 70 260 0.0 0.0 0.00 0.04 0.04 38 1015.2
20260904025009 71 260 0.0 0.0 0.00 0.04 0.04 37 1015.2
20260904024010 71 260 0.0 0.0 0.00 0.04 0.04 36 1015.2
20260904023009 72 260 0.0 0.0 0.00 0.04 0.04 35 1015.3
20260904022009 72 260 0.0 0.0 0.00 0.04 0.04 34 1015.3
20260904021009 72 260 0.0 0.0 0.00 0.04 0.04 34 1015.5
20260904020009 73 260 0.0 0.0 0.00 0.04 0.04 33 1015.6
20260904014009 73 260 0.0 0.0 0.00 0.04 0.04 32 1015.6
20260904013009 74 260 0.0 0.0 0.00 0.04 0.04 31 1015.7
20260904012009 74 260 0.0 0.0 0.00 0.04 0.04 31 1015.7
20260904010009 75 8 0.0 6.1 0.00 0.04 0.04 32 1015.7
20260904005010 76 283 0.9 6.1 0.00 0.04 0.04 31 1015.8
20260904004009 76 330 0.9 5.2 0.00 0.04 0.04 29 1015.8
20260904003010 76 241 2.6 8.7 0.00 0.04 0.04 30 1015.8
20260904002009 75 189 0.9 7.0 0.00 0.04 0.04 35 1015.8
20260904001009 76 0 0.0 4.3 0.00 0.04 0.04 33 1015.9
20260904000009 76 179 1.7 7.0 0.00 0.04 0.04 34 1015.9
20260903235009 76 71 0.0 6.1 0.00 0.04 0.04 33 1016.0
20260903234009 76 1 0.9 7.0 0.00 0.04 0.04 35 1016.1
20260903233009 77 333 0.0 4.3 0.00 0.04 0.04 34 1016.3
20260903232009 77 322 1.7 7.8 0.00 0.04 0.04 35 1016.3
20260903231009 76 325 1.7 7.8 0.00 0.04 0.04 36 1016.3
20260903230009 76 62 0.0 8.7 0.00 0.04 0.04 38 1016.4
20260903225010 75 174 0.9 10.4 0.00 0.04 0.04 38 1016.7
20260903224011 75 26 2.6 10.4 0.00 0.04 0.04 38 1016.7
20260903223009 75 315 0.9 11.3 0.00 0.04 0.04 39 1016.8
20260903222011 75 126 2.6 7.8 0.00 0.04 0.04 38 1016.9
20260903221010 76 287 0.9 8.7 0.00 0.04 0.04 39 1016.9
20260903220009 76 289 2.6 7.0 0.00 0.04 0.04 38 1017.0
20260903215010 76 16 1.7 6.1 0.00 0.04 0.04 38 1017.0
20260903214010 75 271 2.6 10.4 0.00 0.04 0.04 39 1017.0
20260903213009 75 209 1.7 8.7 0.00 0.04 0.04 39 1017.1
20260903212010 75 356 1.7 10.4 0.00 0.04 0.04 39 1017.0
20260903211010 76 186 0.9 6.1 0.00 0.04 0.04 37 1017.1
20260903210009 77 255 2.6 6.1 0.00 0.04 0.04 36 1017.2
20260903205012 77 326 0.9 7.8 0.00 0.04 0.04 35 1017.0
20260903203010 79 290 0.9 7.8 0.00 0.04 0.04 33 1017.1
20260903202011 78 101 0.9 6.1 0.00 0.04 0.04 33 1017.0
20260903201009 78 308 1.7 7.8 0.00 0.04 0.04 34 1017.1
20260903200010 77 143 0.9 7.8 0.00 0.04 0.04 33 1017.1
20260903195010 77 183 0.9 7.0 0.00 0.04 0.04 35 1017.1
20260903194010 77 304 0.9 5.2 0.00 0.04 0.04 34 1017.2
20260903192010 76 187 1.7 10.4 0.00 0.04 0.04 35 1017.4
20260903191010 77 352 4.3 7.8 0.00 0.04 0.04 34 1017.4
20260903190009 78 219 2.6 7.8 0.00 0.04 0.04 34 1017.5
20260903185009 77 5 1.7 5.2 0.00 0.04 0.04 34 1017.7
20260903184009 77 122 2.6 8.7 0.00 0.04 0.04 34 1017.7
20260903183010 76 21 0.0 10.4 0.00 0.04 0.04 35 1017.7
20260903182009 77 28 1.7 6.1 0.00 0.04 0.04 34 1017.5
20260903181010 76 264 2.6 8.7 0.00 0.04 0.04 34 1017.7
20260903180010 76 265 1.7 7.0 0.00 0.04 0.04 34 1017.7
20260903174009 73 21 0.0 6.1 0.00 0.04 0.04 38 1017.7
20260903173010 72 349 4.3 7.8 0.00 0.04 0.04 38 1017.5
20260903172010 71 347 0.0 7.0 0.00 0.04 0.04 41 1017.7
20260903171009 71 356 1.7 7.0 0.00 0.04 0.04 41 1017.8
20260903170010 70 4 0.9 6.1 0.00 0.04 0.04 42 1017.8
20260903165010 70 357 1.7 5.2 0.00 0.04 0.04 43 1017.8
20260903164009 69 140 0.0 0.0 0.00 0.04 0.04 44 1017.7
20260903163010 69 140 0.0 0.0 0.00 0.04 0.04 44 1017.8
20260903162009 68 140 0.0 5.2 0.00 0.04 0.04 45 1017.8
20260903161009 67 100 0.9 5.2 0.00 0.04 0.04 46 1017.9
20260903160010 65 136 0.0 4.3 0.00 0.04 0.04 49 1017.9
20260903155010 63 132 0.9 5.2 0.00 0.04 0.04 53 1018.0
20260903154009 61 133 0.0 4.3 0.00 0.04 0.04 57 1018.0
20260903152009 58 118 0.0 4.3 0.04 0.04 0.04 64 1018.0
20260903151011 57 114 0.9 4.3 0.04 0.04 0.04 67 1017.9
20260903150010 56 76 0.0 0.0 0.04 0.04 0.04 72 1017.8
20260903145009 54 76 0.0 4.3 0.04 0.04 0.04 76 1017.8
20260903144010 53 124 1.7 4.3 0.04 0.04 0.04 81 1017.8
20260903141012 51 130 0.9 2.6 0.00 0.00 0.00 75 1000.3
20260903140010 51 117 4.3 27.8 0.00 0.00 0.00 82 1002.0
20260903135010 50 117 0.0 0.0 0.00 0.00 0.00 83 1017.1
20260903134009 50 117 0.0 0.0 0.00 0.00 0.00 84 1017.1
20260903132009 50 114 0.0 0.0 0.00 0.00 0.00 84 1017.0